DELTA 1 DEB, 9701

Orbit data source: Space-Track

DELTA 1 DEB, 9701 is space debris in SSO originally from a launch on Tue, 06 Nov 1973 UTC launched from the Air Force Western Test Range (AFWTR). Debris objects in space refer to the collection of defunct objects orbiting the Earth. Examples of debris include non-operational satellites, rocket bodies, and fragments generated from explosions, collisions, or faulty payload assembly.

Loading next visibility...
Identifier
9701, 1973-086FZ
Orbit
SSO
Country
Flag of USUS
Related business
Manufacturer
Unknown
Mission
Spacecraft
Bus & Motor
Unknown
Mass
Unknown
Launch date (UTC)
1973-11-06 (52 years ago)
Launch vehicle
Unknown
Launch site
Air Force Western Test Range (AFWTR)
Object type
Payload
Rocket body
Debris
Shape & HBR
Unknown shape, 0.1 m
Radar Cross Section
Small (<0.1 m²)

Expand to show TLE details & history
Last TLE update: 1 day ago

TLE from 1 day ago
0 DELTA 1 DEB
1 09701U 73086FZ  25292.01967617  .00007253  00000-0  16012-1 0  9996
2 09701 102.6120 117.0590 0023610 149.2794   2.3410 13.28327121418184
Epoch: 2025-10-19T00:28Z
TLE epoch observation values (Epoch: 2025-10-19T00:28:20.021Z)
Latitude
27.66713°
Longitude
-91.06466°
Altitude
1,138.456 km
Speed
7.295 km/s
True Right ascension
20h 15m 02s
True Declination
27° 31' 59"
Sunlit
Object was in daylight at epoch
Visualization orbit readout
Latitude
Unknown
Longitude
Unknown
Altitude
Unknown
Speed
Unknown
Apparent Right ascension
Unknown
Apparent Declination
Unknown
Sunlit
N/A
Visualization observer readout
Local Sidereal Time
04:37:26
Azimuth
Unknown
Elevation
Unknown
Doppler factor
Unknown
Orbital elements
Apogee altitude
1,168.355 km
Perigee altitude
1,132.804 km
Semi-major axis
7,528.716 km
Eccentricity
0.00236
Inclination
102.612°
RAAN
117.059°
Arg. of periapsis
149.2794°
True anomaly
2.35208°
Mean anomaly
2.341°
Eccentric anomaly
2.34654°
Mean motion
3.32248 °/min
Orbital period
108.35 mins
BSTAR
0.016012
Loading maneuver chart data...
Computing Atmospheric mass density...
Loading historical data...
Loading historical data...
Loading historical data...
Loading historical data...
Loading historical data...
Loading historical data...
Loading historical data...

Documentation

Showing up to 5 results
|